Miscellaneous Local Product
Issued by NWS North Platte, NE

Home | Current Version | Previous Version | Text Only | Print | Product List | Glossary On
Versions: 1 2 3 4 5 6 7 8 9 10 11 12 13 14 15 16 17 18 19 20 21 22 23 24 25 26 27 28 29 30 31 32 33 34 35 36 37 38 39 40 41 42 43 44 45 46 47 48 49 50
000
AXUS43 KLBF 310610
MISLBF


WESTERN AND NORTH CENTRAL NEBRASKA HOURLY WEATHER ROUNDUP
NATIONAL WEATHER SERVICE NORTH PLATTE NE
100 AM CDT SUN MAY 31 2015

***STATIONS NOT REPORTING VARIABLES SUCH AS SKY/WEATHER OR
PRESSURE ARE PROVIDED BY THE NEBRASKA DEPARTMENT OF
ROADS...RAWS...AND APRS NETWORKS...AND ARE NOT UNDER
NATIONAL WEATHER SERVICE QUALITY CONTROL***

...OBSERVATIONS IN AND NEAR THE EASTERN PANHANDLE OF NEBRASKA...

CITY           SKY/WX    TMP DP  RH WIND       PRES   REMARKS
PINE RIDGE     MOCLDY    55  37  50 S25G33    30.09F
CHADRON        MOCLDY    57  39  51 S22G31    30.06F
ALLIANCE       PTCLDY    51  40  65 SE15      30.14F
SIDNEY         CLEAR     49  40  71 S14       30.18S
WHITECLAY        N/A     49  37  63 E14         N/A
CRESCENT LAKE    N/A     49  40  72 S8          N/A
BIG SPRINGS      N/A     52  40  64 S10         N/A
$$

...OBSERVATIONS IN NORTH CENTRAL NEBRASKA...

CITY           SKY/WX    TMP DP  RH WIND       PRES   REMARKS
VALENTINE      CLEAR     47  38  71 SE12      30.20R
THEDFORD       CLEAR     44  39  82 SE5       30.21S
AINSWORTH      CLEAR     47  41  81 SE8       30.21R
O`NEILL        CLEAR     47  45  91 CALM      30.22S
ORD            CLEAR     42  38  85 CALM      30.21R
BROKEN BOW     CLEAR     44  39  82 N3        30.21S
BROWNLEE         N/A     49  40  73 SE10        N/A
VALENTINE NWR    N/A     44  38  81 SE7         N/A
SPRINGVIEW       N/A     41  38  89 CALM        N/A
HALSEY           N/A     46  38  73 SE6         N/A
NEWPORT          N/A     43  40  88 CALM        N/A
SARGENT          N/A     46  43  90 CALM        N/A
CHAMBERS         N/A     43  38  83 CALM        N/A
EWING            N/A     47  42  84 CALM        N/A
$$

...OBSERVATIONS IN SOUTHWEST NEBRASKA AND FAR NORTHEAST COLORADO...

CITY           SKY/WX    TMP DP  RH WIND       PRES   REMARKS
WRAY           FAIR      50  41  70 SE8       30.21S
HOLYOKE        FAIR      52  41  66 S10       30.21R
IMPERIAL       CLEAR     45  40  82 SE7       30.20F
OGALLALA       CLEAR     51  38  62 CALM      30.19F
NORTH PLATTE   CLEAR     45  40  82 E6        30.21S
MCCOOK         CLEAR     44  38  79 CALM      30.21S
LEXINGTON      CLEAR     45  39  81 CALM      30.21S
PAXTON           N/A     48  42  79 S6          N/A
GOTHENBURG       N/A     49  37  64 CALM        N/A
CALLAWAY         N/A     46  40  81 S3          N/A
$$

...NORTH PLATTE AREA...

CITY           SKY/WX    TMP DP  RH WIND       PRES   REMARKS
AIRPORT        CLEAR     45  40  82 E6        30.21S
DOWNTOWN         N/A     48  37  67 CALM        N/A
$$

...SOME WEATHER OBSERVATIONS FROM AROUND THE REGION...

CITY           SKY/WX    TMP DP  RH WIND       PRES   REMARKS
DENVER         PTCLDY    58  48  69 S17       30.16F
LARAMIE        CLEAR     48  42  80 S12       30.22S
CHEYENNE       CLEAR     51  46  83 S13       30.19F
SCOTTSBLUFF    CLEAR     51  46  83 E12       30.13S
RAPID CITY     CLOUDY    50  42  74 S10       30.06F
PIERRE         CLEAR     42  37  82 E8        30.17S
WINNER         FAIR      46  37  71 SE9       30.20R
SIOUX FALLS    CLEAR     45  41  86 CALM      30.22S
OMAHA          CLEAR     55  49  80 E7        30.20S
GRAND ISLAND   CLEAR     49  40  71 CALM      30.21R
KANSAS CITY    CLOUDY    59  55  87 NE10      30.15S
WICHITA        CLOUDY    62  53  72 NE6       30.18R
HAYS           CLEAR     52  43  71 NW6       30.19S
LIBERAL        CLEAR     55  45  67 E6        30.23S
GOODLAND       CLEAR     46  41  82 S8        30.23F
$$



USA.gov is the U.S. government's official web portal to all federal, state and local government web resources and services.